Time,TemperatureF,DewpointF,PressureIn,WindDirection,WindDirectionDegrees,WindSpeedMPH,WindSpeedGustMPH,Humidity,HourlyPrecipIn,Conditions,Clouds,dailyrainin,SoftwareType,DateUTC
2013-01-21 00:04:00,15.0,14.0,30.11,WNW,284,0.0,0.0,95,0.03,,,-99.99,,2013-01-21 05:04:00,
2013-01-21 00:12:00,15.0,14.0,30.11,WNW,284,0.0,0.0,95,0.03,,,-99.99,,2013-01-21 05:12:00,
2013-01-21 00:22:00,15.0,14.0,30.11,WNW,284,2.0,0.0,95,0.03,,,-99.99,,2013-01-21 05:22:00,
2013-01-21 00:34:00,15.0,14.0,30.11,WNW,297,3.0,0.0,96,0.03,,,-99.99,,2013-01-21 05:34:00,
2013-01-21 00:42:00,15.0,14.0,30.11,WNW,297,3.0,0.0,96,0.03,,,-99.99,,2013-01-21 05:42:00,
2013-01-21 00:53:00,15.0,14.0,30.10,WNW,301,2.0,0.0,96,0.03,,,-99.99,,2013-01-21 05:53:00,
2013-01-21 01:03:00,15.0,14.0,30.09,WNW,302,5.0,0.0,96,0.03,,,-99.99,,2013-01-21 06:03:00,
2013-01-21 01:13:00,15.0,14.0,30.09,WNW,302,5.0,0.0,96,0.03,,,-99.99,,2013-01-21 06:13:00,
2013-01-21 01:23:00,15.0,14.0,30.08,NW,321,7.0,0.0,96,0.03,,,-99.99,,2013-01-21 06:23:00,
2013-01-21 01:33:00,15.0,14.0,30.08,NW,319,7.0,0.0,96,0.03,,,-99.99,,2013-01-21 06:33:00,
2013-01-21 01:43:00,15.0,14.0,30.08,NW,319,7.0,0.0,96,0.03,,,-99.99,,2013-01-21 06:43:00,
2013-01-21 01:53:00,15.0,14.0,30.07,West,280,5.0,0.0,96,0.03,,,-99.99,,2013-01-21 06:53:00,
2013-01-21 02:03:00,14.0,13.0,30.07,WNW,290,7.0,0.0,96,0.03,,,-99.99,,2013-01-21 07:03:00,
2013-01-21 02:13:00,14.0,13.0,30.07,WNW,290,7.0,0.0,96,0.03,,,-99.99,,2013-01-21 07:13:00,
2013-01-21 02:23:00,14.0,13.0,30.06,WNW,295,5.0,0.0,96,0.03,,,-99.99,,2013-01-21 07:23:00,
2013-01-21 02:33:00,14.0,13.0,30.06,NNW,329,8.0,0.0,96,0.03,,,-99.99,,2013-01-21 07:33:00,
2013-01-21 02:42:00,14.0,13.0,30.06,NNW,329,8.0,0.0,96,0.03,,,-99.99,,2013-01-21 07:42:00,
2013-01-21 02:53:00,14.0,13.0,30.06,West,260,5.0,0.0,96,0.03,,,-99.99,,2013-01-21 07:53:00,
2013-01-21 03:03:00,14.0,13.0,30.06,WNW,302,7.0,0.0,97,0.03,,,-99.99,,2013-01-21 08:03:00,
2013-01-21 03:14:00,14.0,13.0,30.06,WNW,302,7.0,0.0,97,0.03,,,-99.99,,2013-01-21 08:14:00,
2013-01-21 03:23:00,14.0,13.0,30.05,WNW,291,7.0,0.0,97,0.03,,,-99.99,,2013-01-21 08:23:00,
2013-01-21 03:33:00,14.0,14.0,30.05,WNW,291,7.0,0.0,98,0.03,,,-99.99,,2013-01-21 08:33:00,
2013-01-21 03:42:00,14.0,14.0,30.05,WNW,291,7.0,0.0,98,0.03,,,-99.99,,2013-01-21 08:42:00,
2013-01-21 03:53:00,14.0,14.0,30.04,WNW,287,7.0,0.0,98,0.03,,,-99.99,,2013-01-21 08:53:00,
2013-01-21 04:03:00,14.0,14.0,30.03,NW,316,9.0,0.0,99,0.03,,,-99.99,,2013-01-21 09:03:00,
2013-01-21 04:12:00,14.0,14.0,30.03,NW,316,9.0,0.0,99,0.03,,,-99.99,,2013-01-21 09:12:00,
2013-01-21 04:23:00,14.0,14.0,30.03,WNW,300,9.0,0.0,99,0.03,,,-99.99,,2013-01-21 09:23:00,
2013-01-21 04:33:00,13.0,13.0,30.02,West,277,10.0,0.0,99,0.03,,,-99.99,,2013-01-21 09:33:00,
2013-01-21 04:42:00,13.0,13.0,30.02,West,277,10.0,0.0,99,0.03,,,-99.99,,2013-01-21 09:42:00,
2013-01-21 04:53:00,13.0,13.0,30.02,NW,311,9.0,0.0,99,0.03,,,-99.99,,2013-01-21 09:53:00,
2013-01-21 05:02:00,13.0,13.0,30.02,West,270,8.0,0.0,99,0.03,,,-99.99,,2013-01-21 10:02:00,
2013-01-21 05:12:00,13.0,13.0,30.02,West,270,8.0,0.0,99,0.03,,,-99.99,,2013-01-21 10:12:00,
2013-01-21 05:22:00,13.0,13.0,30.01,NW,323,8.0,0.0,99,0.03,,,-99.99,,2013-01-21 10:22:00,
2013-01-21 05:33:00,13.0,13.0,30.01,WNW,298,8.0,0.0,99,0.03,,,-99.99,,2013-01-21 10:33:00,
2013-01-21 05:43:00,13.0,13.0,30.01,WNW,298,8.0,0.0,99,0.03,,,-99.99,,2013-01-21 10:43:00,
2013-01-21 05:53:00,13.0,13.0,30.01,NW,309,11.0,0.0,100,0.03,,,-99.99,,2013-01-21 10:53:00,
2013-01-21 06:03:00,13.0,13.0,30.01,NW,321,6.0,0.0,100,0.03,,,-99.99,,2013-01-21 11:03:00,
2013-01-21 06:13:00,13.0,13.0,30.01,NW,321,6.0,0.0,100,0.03,,,-99.99,,2013-01-21 11:13:00,
2013-01-21 06:23:00,12.0,12.0,30.00,NW,316,8.0,0.0,100,0.03,,,-99.99,,2013-01-21 11:23:00,
2013-01-21 06:33:00,12.0,12.0,30.00,NNW,345,10.0,0.0,100,0.03,,,-99.99,,2013-01-21 11:33:00,
2013-01-21 06:43:00,12.0,12.0,30.00,NNW,345,10.0,0.0,100,0.03,,,-99.99,,2013-01-21 11:43:00,
2013-01-21 06:53:00,12.0,12.0,30.00,NW,318,10.0,0.0,99,0.03,,,-99.99,,2013-01-21 11:53:00,
2013-01-21 07:03:00,11.0,11.0,30.00,NW,321,13.0,0.0,100,0.03,,,-99.99,,2013-01-21 12:03:00,
2013-01-21 07:12:00,11.0,11.0,30.00,NW,321,13.0,0.0,100,0.03,,,-99.99,,2013-01-21 12:12:00,
2013-01-21 07:22:00,11.0,11.0,30.00,NW,326,13.0,0.0,100,0.03,,,-99.99,,2013-01-21 12:22:00,
2013-01-21 07:33:00,11.0,11.0,30.01,NNW,330,12.0,0.0,100,0.03,,,-99.99,,2013-01-21 12:33:00,
2013-01-21 07:42:00,11.0,11.0,30.01,NNW,330,12.0,0.0,100,0.03,,,-99.99,,2013-01-21 12:42:00,
2013-01-21 07:53:00,11.0,11.0,30.01,NW,319,11.0,0.0,100,0.03,,,-99.99,,2013-01-21 12:53:00,
2013-01-21 08:03:00,11.0,11.0,30.00,NW,323,9.0,0.0,100,0.03,,,-99.99,,2013-01-21 13:03:00,
2013-01-21 08:13:00,11.0,11.0,30.00,NW,323,9.0,0.0,100,0.03,,,-99.99,,2013-01-21 13:13:00,
2013-01-21 08:23:00,11.0,11.0,30.00,NNW,335,8.0,0.0,100,0.03,,,-99.99,,2013-01-21 13:23:00,
2013-01-21 08:33:00,11.0,11.0,30.00,NW,325,11.0,0.0,100,0.03,,,-99.99,,2013-01-21 13:33:00,
2013-01-21 08:43:00,11.0,11.0,30.00,NW,325,11.0,0.0,100,0.03,,,-99.99,,2013-01-21 13:43:00,
2013-01-21 08:54:00,11.0,11.0,30.00,NNW,333,12.0,0.0,100,0.03,,,-99.99,,2013-01-21 13:54:00,
2013-01-21 09:03:00,10.0,10.0,30.00,NNW,333,11.0,0.0,100,0.03,,,-99.99,,2013-01-21 14:03:00,
2013-01-21 09:13:00,10.0,10.0,30.00,NNW,333,11.0,0.0,100,0.03,,,-99.99,,2013-01-21 14:13:00,
2013-01-21 09:23:00,10.0,10.0,30.00,NNW,339,10.0,0.0,100,0.03,,,-99.99,,2013-01-21 14:23:00,
2013-01-21 09:33:00,11.0,11.0,30.00,NW,325,11.0,0.0,100,0.03,,,-99.99,,2013-01-21 14:33:00,
2013-01-21 09:43:00,11.0,11.0,30.00,NW,325,11.0,0.0,100,0.03,,,-99.99,,2013-01-21 14:43:00,
2013-01-21 09:54:00,9.0,9.0,30.00,NNW,328,20.0,0.0,100,0.03,,,-99.99,,2013-01-21 14:54:00,
2013-01-21 10:03:00,9.0,9.0,30.01,NW,318,19.0,0.0,100,0.03,,,-99.99,,2013-01-21 15:03:00,
2013-01-21 10:13:00,9.0,9.0,30.01,NW,318,19.0,0.0,100,0.03,,,-99.99,,2013-01-21 15:13:00,
2013-01-21 10:23:00,9.0,9.0,30.01,NW,323,17.0,0.0,100,0.03,,,-99.99,,2013-01-21 15:23:00,
2013-01-21 10:33:00,9.0,9.0,30.02,NNW,336,17.0,0.0,98,0.03,,,-99.99,,2013-01-21 15:33:00,
2013-01-21 10:43:00,9.0,9.0,30.02,NNW,336,17.0,0.0,98,0.03,,,-99.99,,2013-01-21 15:43:00,
2013-01-21 10:53:00,10.0,9.0,30.02,NW,321,16.0,0.0,96,0.03,,,-99.99,,2013-01-21 15:53:00,
2013-01-21 11:04:00,10.0,9.0,30.02,NNW,340,13.0,0.0,95,0.03,,,-99.99,,2013-01-21 16:04:00,
2013-01-21 11:13:00,10.0,9.0,30.02,NNW,340,13.0,0.0,95,0.03,,,-99.99,,2013-01-21 16:13:00,
2013-01-21 11:23:00,10.0,9.0,30.02,NNW,330,16.0,0.0,94,0.03,,,-99.99,,2013-01-21 16:23:00,
2013-01-21 11:33:00,10.0,8.0,30.02,NNW,330,17.0,0.0,93,0.03,,,-99.99,,2013-01-21 16:33:00,
2013-01-21 11:43:00,10.0,8.0,30.02,NNW,330,17.0,0.0,93,0.03,,,-99.99,,2013-01-21 16:43:00,
2013-01-21 11:53:00,10.0,8.0,30.02,NW,311,18.0,0.0,91,0.03,,,-99.99,,2013-01-21 16:53:00,
2013-01-21 12:03:00,9.0,7.0,30.02,WNW,287,13.0,0.0,92,0.03,,,-99.99,,2013-01-21 17:03:00,
2013-01-21 12:13:00,9.0,7.0,30.02,WNW,287,13.0,0.0,92,0.03,,,-99.99,,2013-01-21 17:13:00,
2013-01-21 12:23:00,9.0,7.0,30.01,NNW,329,17.0,0.0,90,0.03,,,-99.99,,2013-01-21 17:23:00,
2013-01-21 12:33:00,10.0,8.0,30.00,NNW,329,17.0,0.0,91,0.03,,,-99.99,,2013-01-21 17:33:00,
2013-01-21 12:43:00,10.0,8.0,30.00,NNW,329,17.0,0.0,91,0.03,,,-99.99,,2013-01-21 17:43:00,
2013-01-21 12:53:00,9.0,6.0,30.00,NNW,330,16.0,0.0,89,0.03,,,-99.99,,2013-01-21 17:53:00,
2013-01-21 13:03:00,9.0,6.0,30.00,WNW,301,18.0,0.0,87,0.03,,,-99.99,,2013-01-21 18:03:00,
2013-01-21 13:12:00,9.0,6.0,30.00,WNW,301,18.0,0.0,87,0.03,,,-99.99,,2013-01-21 18:12:00,
2013-01-21 13:23:00,9.0,6.0,29.99,NW,311,17.0,0.0,86,0.03,,,-99.99,,2013-01-21 18:23:00,
2013-01-21 13:33:00,9.0,7.0,29.99,NW,316,18.0,0.0,91,0.03,,,-99.99,,2013-01-21 18:33:00,
2013-01-21 13:43:00,9.0,7.0,29.99,NW,316,18.0,0.0,91,0.03,,,-99.99,,2013-01-21 18:43:00,
2013-01-21 13:53:00,9.0,7.0,29.99,NW,308,15.0,0.0,91,0.03,,,-99.99,,2013-01-21 18:53:00,
2013-01-21 14:03:00,9.0,7.0,29.99,NNW,333,18.0,0.0,90,0.03,,,-99.99,,2013-01-21 19:03:00,
2013-01-21 14:13:00,9.0,7.0,29.99,NNW,333,18.0,0.0,90,0.03,,,-99.99,,2013-01-21 19:13:00,
2013-01-21 14:22:00,9.0,8.0,29.99,NW,312,13.0,0.0,97,0.03,,,-99.99,,2013-01-21 19:22:00,
2013-01-21 14:33:00,9.0,8.0,29.99,NW,314,12.0,0.0,97,0.03,,,-99.99,,2013-01-21 19:33:00,
2013-01-21 14:43:00,9.0,8.0,29.99,NW,314,12.0,0.0,97,0.03,,,-99.99,,2013-01-21 19:43:00,
2013-01-21 14:53:00,9.0,9.0,30.00,West,274,12.0,0.0,98,0.03,,,-99.99,,2013-01-21 19:53:00,
2013-01-21 15:03:00,8.0,8.0,30.00,NW,304,13.0,0.0,98,0.03,,,-99.99,,2013-01-21 20:03:00,
2013-01-21 15:12:00,8.0,8.0,30.00,NW,304,13.0,0.0,98,0.03,,,-99.99,,2013-01-21 20:12:00,
2013-01-21 15:23:00,8.0,8.0,30.00,West,278,13.0,0.0,98,0.03,,,-99.99,,2013-01-21 20:23:00,
2013-01-21 15:33:00,7.0,7.0,30.01,NNW,330,15.0,0.0,99,0.03,,,-99.99,,2013-01-21 20:33:00,
2013-01-21 15:43:00,7.0,7.0,30.01,NNW,330,15.0,0.0,99,0.03,,,-99.99,,2013-01-21 20:43:00,
2013-01-21 15:53:00,8.0,8.0,30.01,WNW,284,9.0,0.0,98,0.03,,,-99.99,,2013-01-21 20:53:00,
2013-01-21 16:04:00,8.0,8.0,30.01,WNW,284,9.0,0.0,98,0.03,,,-99.99,,2013-01-21 21:04:00,
2013-01-21 16:12:00,8.0,8.0,30.01,WNW,284,9.0,0.0,98,0.03,,,-99.99,,2013-01-21 21:12:00,
2013-01-21 16:23:00,6.0,6.0,30.03,NW,318,15.0,0.0,100,0.03,,,-99.99,,2013-01-21 21:23:00,
2013-01-21 16:33:00,6.0,6.0,30.03,NW,314,18.0,0.0,100,0.03,,,-99.99,,2013-01-21 21:33:00,
2013-01-21 16:43:00,6.0,6.0,30.03,NW,314,18.0,0.0,100,0.03,,,-99.99,,2013-01-21 21:43:00,
2013-01-21 16:53:00,6.0,6.0,30.03,NNW,345,8.0,0.0,99,0.03,,,-99.99,,2013-01-21 21:53:00,
2013-01-21 17:03:00,6.0,6.0,30.03,NNW,332,16.0,0.0,99,0.03,,,-99.99,,2013-01-21 22:03:00,
2013-01-21 17:13:00,6.0,6.0,30.03,NNW,332,16.0,0.0,99,0.03,,,-99.99,,2013-01-21 22:13:00,
2013-01-21 17:23:00,6.0,6.0,30.03,WNW,300,14.0,0.0,99,0.03,,,-99.99,,2013-01-21 22:23:00,
2013-01-21 17:33:00,6.0,6.0,30.04,NNW,328,16.0,0.0,98,0.03,,,-99.99,,2013-01-21 22:33:00,
2013-01-21 17:43:00,6.0,6.0,30.04,NNW,328,16.0,0.0,98,0.03,,,-99.99,,2013-01-21 22:43:00,
2013-01-21 17:52:00,6.0,6.0,30.04,NNW,329,10.0,0.0,99,0.03,,,-99.99,,2013-01-21 22:52:00,
2013-01-21 18:03:00,6.0,6.0,30.04,WNW,294,12.0,0.0,99,0.03,,,-99.99,,2013-01-21 23:03:00,
2013-01-21 18:13:00,6.0,6.0,30.04,WNW,294,12.0,0.0,99,0.03,,,-99.99,,2013-01-21 23:13:00,
2013-01-21 18:23:00,5.0,5.0,30.05,NNW,333,14.0,0.0,99,0.03,,,-99.99,,2013-01-21 23:23:00,
2013-01-21 18:33:00,5.0,5.0,30.05,NW,321,13.0,0.0,99,0.03,,,-99.99,,2013-01-21 23:33:00,
2013-01-21 18:42:00,5.0,5.0,30.05,NW,321,13.0,0.0,99,0.03,,,-99.99,,2013-01-21 23:42:00,
2013-01-21 18:53:00,5.0,5.0,30.05,NNW,340,10.0,0.0,99,0.03,,,-99.99,,2013-01-21 23:53:00,
2013-01-21 19:03:00,5.0,5.0,30.06,NW,321,9.0,0.0,99,0.03,,,-99.99,,2013-01-22 00:03:00,
2013-01-21 19:12:00,5.0,5.0,30.06,NW,321,9.0,0.0,99,0.03,,,-99.99,,2013-01-22 00:12:00,
2013-01-21 19:23:00,5.0,5.0,30.06,NW,312,12.0,0.0,99,0.03,,,-99.99,,2013-01-22 00:23:00,
2013-01-21 19:33:00,5.0,5.0,30.06,NW,326,10.0,0.0,99,0.03,,,-99.99,,2013-01-22 00:33:00,
2013-01-21 19:43:00,5.0,5.0,30.06,NW,326,10.0,0.0,99,0.03,,,-99.99,,2013-01-22 00:43:00,
2013-01-21 19:53:00,5.0,5.0,30.07,NNW,332,9.0,0.0,99,0.03,,,-99.99,,2013-01-22 00:53:00,
2013-01-21 20:02:00,5.0,5.0,30.07,NNW,338,11.0,0.0,99,0.03,,,-99.99,,2013-01-22 01:02:00,
2013-01-21 20:12:00,5.0,5.0,30.07,NNW,338,11.0,0.0,99,0.03,,,-99.99,,2013-01-22 01:12:00,
2013-01-21 20:23:00,5.0,5.0,30.07,NW,325,13.0,0.0,99,0.03,,,-99.99,,2013-01-22 01:23:00,
2013-01-21 20:33:00,4.0,4.0,30.07,NW,319,14.0,0.0,99,0.03,,,-99.99,,2013-01-22 01:33:00,
2013-01-21 20:43:00,4.0,4.0,30.07,NW,319,14.0,0.0,99,0.03,,,-99.99,,2013-01-22 01:43:00,
2013-01-21 20:52:00,4.0,4.0,30.08,NNW,335,11.0,0.0,99,0.03,,,-99.99,,2013-01-22 01:52:00,
2013-01-21 21:03:00,4.0,4.0,30.08,NNW,339,14.0,0.0,98,0.03,,,-99.99,,2013-01-22 02:03:00,
2013-01-21 21:12:00,4.0,4.0,30.08,NNW,339,14.0,0.0,98,0.03,,,-99.99,,2013-01-22 02:12:00,
2013-01-21 21:23:00,4.0,4.0,30.08,NW,321,13.0,0.0,98,0.03,,,-99.99,,2013-01-22 02:23:00,
2013-01-21 21:32:00,3.0,3.0,30.09,NW,325,11.0,0.0,98,0.03,,,-99.99,,2013-01-22 02:32:00,
2013-01-21 21:43:00,3.0,3.0,30.09,NW,325,11.0,0.0,98,0.03,,,-99.99,,2013-01-22 02:43:00,
2013-01-21 21:53:00,3.0,3.0,30.09,NW,321,13.0,0.0,98,0.03,,,-99.99,,2013-01-22 02:53:00,
2013-01-21 22:03:00,3.0,3.0,30.10,NNW,345,12.0,0.0,98,0.03,,,-99.99,,2013-01-22 03:03:00,
2013-01-21 22:12:00,3.0,3.0,30.10,NNW,345,12.0,0.0,98,0.03,,,-99.99,,2013-01-22 03:12:00,
2013-01-21 22:22:00,3.0,3.0,30.10,West,277,11.0,0.0,98,0.03,,,-99.99,,2013-01-22 03:22:00,
2013-01-21 22:33:00,2.0,1.0,30.10,NNW,329,16.0,0.0,96,0.03,,,-99.99,,2013-01-22 03:33:00,
2013-01-21 22:42:00,2.0,1.0,30.10,NNW,329,16.0,0.0,96,0.03,,,-99.99,,2013-01-22 03:42:00,
2013-01-21 22:53:00,2.0,1.0,30.11,NW,318,15.0,0.0,96,0.03,,,-99.99,,2013-01-22 03:53:00,
2013-01-21 23:03:00,1.0,0.0,30.11,NW,322,12.0,0.0,95,0.03,,,-99.99,,2013-01-22 04:03:00,
2013-01-21 23:12:00,1.0,0.0,30.11,NW,322,12.0,0.0,95,0.03,,,-99.99,,2013-01-22 04:12:00,
2013-01-21 23:22:00,1.0,0.0,30.12,NW,318,11.0,0.0,95,0.03,,,-99.99,,2013-01-22 04:22:00,
2013-01-21 23:33:00,1.0,0.0,30.12,NW,318,8.0,0.0,94,0.03,,,-99.99,,2013-01-22 04:33:00,
2013-01-21 23:42:00,1.0,0.0,30.12,NW,318,8.0,0.0,94,0.03,,,-99.99,,2013-01-22 04:42:00,
2013-01-21 23:53:00,1.0,0.0,30.12,NW,315,10.0,0.0,94,0.03,,,-99.99,,2013-01-22 04:53:00,